This is the latest recevied weather packets stored in our database for station/object 9A3SWO. If no packets are shown the sender has not sent any weather packets the latest 10 day(s).
| Time | Temp. | Humidity | Pressure | Rain* | Wind** | Luminosity | Snow |
|---|---|---|---|---|---|---|---|
| 1787946503 | 29.44° C | 49% | 1012.7 hPa | - | - | - | - |
| 1787945903 | 29.44° C | 47% | 1012.4 hPa | - | - | - | - |
| 1787945303 | 29.44° C | 49% | 1012.5 hPa | - | - | - | - |
| 1787944703 | 28.89° C | 49% | 1012.6 hPa | - | - | - | - |
| 1787944103 | 30° C | 46% | 1012.6 hPa | - | - | - | - |
| 1787943504 | 30° C | 44% | 1012.4 hPa | - | - | - | - |
| 1787942903 | 30.56° C | 44% | 1012.4 hPa | - | - | - | - |
| 1787942304 | 30.56° C | 44% | 1012.2 hPa | - | - | - | - |
| 1787941703 | 30.56° C | 43% | 1012.2 hPa | - | - | - | - |
| 1787941103 | 31.11° C | 45% | 1012.2 hPa | - | - | - | - |
| 1787940504 | 31.11° C | 45% | 1012.1 hPa | - | - | - | - |
| 1787939903 | 31.11° C | 46% | 1012 hPa | - | - | - | - |
| 1787939303 | 31.11° C | 48% | 1012 hPa | - | - | - | - |
| 1787938702 | 31.11° C | 49% | 1011.9 hPa | - | - | - | - |
| 1787938103 | 31.11° C | 50% | 1011.7 hPa | - | - | - | - |
| 1787937502 | 31.11° C | 49% | 1011.8 hPa | - | - | - | - |
| 1787936903 | 31.67° C | 49% | 1011.9 hPa | - | - | - | - |
| 1787936303 | 31.67° C | 48% | 1011.9 hPa | - | - | - | - |
| 1787935703 | 32.22° C | 48% | 1011.8 hPa | - | - | - | - |
| 1787935102 | 32.22° C | 47% | 1011.8 hPa | - | - | - | - |
| 1787934503 | 32.22° C | 47% | 1011.9 hPa | - | - | - | - |
| 1787933903 | 32.22° C | 47% | 1011.7 hPa | - | - | - | - |
| 1787933302 | 32.22° C | 47% | 1011.8 hPa | - | - | - | - |
| 1787932703 | 32.22° C | 47% | 1011.8 hPa | - | - | - | - |
| 1787932108 | 32.22° C | 47% | 1012 hPa | - | - | - | - |
* Rain since midnight (hover to see other rain measurements)
** Current wind speed in m/s (hover to see current wind gust speed)